SCP
1 1 1 1 1 1 1 1 1 1 0 0 0 0 0 0 0 0 0 0 0 0 0 0 0 0 0 0 0 0 0 0 0 0 0 0 0 0 0 0 0 0 0
1 1 1 1 1 1 1 1 1 1 0 0 0 0 0 0 0 0 0 0 0 0 0 0 0 0 0 0 0 0 0 0 0 0 0 0 0 0 0 0 0 0 0
1 1 1 1 1 1 1 1 1 1 0 0 0 0 0 0 0 0 0 0 0 0 0 0 0 0 0 0 0 0 0 0 0 0 0 0 0 0 0 0 0 0 0
1 1 1 1 1 1 1 1 1 1 0 0 0 0 0 0 0 0 0 0 0 0 0 0 0 0 0 0 0 0 0 0 0 0 0 0 0 0 0 0 0 0 0
0 1 1 1 1 1 1 1 1 1 1 0 0 0 0 0 0 0 0 0 0 0 0 0 0 0 0 0 0 0 0 0 0 0 0 0 0 0 0 0 0 0 0
0 1 1 1 1 1 1 1 1 1 1 0 0 0 0 0 0 0 0 0 0 0 0 0 0 0 0 0 0 0 0 0 0 0 0 0 0 0 0 0 0 0 0
0 1 1 1 1 1 1 1 1 1 1 1 1 0 0 0 0 0 0 0 0 0 0 0 0 0 0 0 0 0 0 0 0 0 0 0 0 0 0 0 0 0 0
0 0 1 1 1 1 1 1 1 1 1 1 1 0 0 0 0 0 0 0 0 0 0 0 0 0 0 0 0 0 0 0 0 0 0 0 0 0 0 0 0 0 0
0 0 0 1 1 1 1 1 1 1 1 1 1 0 0 0 0 0 0 0 0 0 0 0 0 0 0 0 0 0 0 0 0 0 0 0 0 0 0 0 0 0 0
0 0 0 0 1 1 1 1 1 1 1 1 1 0 0 0 0 0 0 0 0 0 0 0 0 0 0 0 0 0 0 0 0 0 0 0 0 0 0 0 0 0 0
0 0 0 1 1 1 1 1 1 1 1 1 1 0 0 0 0 0 0 0 0 0 0 0 0 0 0 0 0 0 0 0 0 0 0 0 0 0 0 0 0 0 0
0 0 0 1 1 1 1 1 1 1 1 1 0 0 0 0 0 0 0 0 0 0 0 0 0 0 0 0 0 0 0 0 0 0 0 0 0 0 0 0 0 0 0
0 0 0 0 0 1 1 1 1 1 1 1 0 0 0 0 0 0 0 0 0 0 0 0 0 0 0 0 0 0 0 0 0 0 0 0 1 1 1 0 0 0 0
0 0 0 0 0 0 0 1 1 1 1 1 1 0 1 0 0 0 0 0 0 0 0 0 0 0 0 0 0 0 0 0 0 0 0 0 0 0 1 0 0 0 0
0 0 0 0 0 0 0 0 1 1 1 1 1 1 1 1 0 0 0 0 0 0 0 0 0 0 0 0 0 0 0 0 0 0 0 0 0 0 0 0 0 0 0
0 0 0 0 0 0 0 0 0 0 1 1 1 1 1 1 1 1 1 0 0 0 0 0 0 0 0 0 0 0 0 0 0 0 0 0 0 0 0 0 0 0 0
0 0 0 0 0 0 0 0 0 0 0 0 1 1 1 1 1 1 1 1 0 0 0 0 0 0 0 0 0 0 0 0 0 0 0 0 0 0 0 0 0 0 0
0 0 0 0 0 0 0 0 0 0 0 0 1 1 1 1 1 1 1 1 1 0 0 0 0 0 0 0 0 0 0 0 0 0 0 0 0 0 0 0 0 0 0
0 0 0 0 0 0 0 0 0 0 0 0 0 1 1 1 1 1 1 1 1 0 0 0 0 0 0 0 0 0 0 0 0 0 0 0 0 0 0 0 0 0 0
0 0 0 0 0 0 0 0 0 0 0 0 0 0 1 1 1 1 1 1 1 0 0 0 0 0 0 0 0 0 0 0 0 0 0 0 0 0 0 0 0 0 0
0 0 0 0 0 0 0 0 0 0 0 0 0 0 0 1 1 1 1 1 1 1 0 0 0 0 0 0 0 0 0 0 0 0 0 0 0 0 0 0 0 0 0
0 0 0 0 0 0 0 0 0 0 0 0 0 0 0 0 1 1 1 1 1 0 0 0 0 0 0 0 0 0 0 0 0 0 0 0 0 0 0 0 0 0 0
0 0 0 0 0 0 0 0 0 0 0 0 0 0 0 0 0 1 1 1 1 0 0 0 0 0 0 0 0 0 0 0 0 0 0 0 0 0 0 0 0 0 0
0 0 0 0 0 0 0 0 0 0 0 0 0 0 0 0 0 1 1 1 1 0 0 0 0 0 0 0 0 0 0 0 0 0 0 0 0 0 0 0 0 0 0
0 0 0 0 0 0 0 0 0 0 0 0 0 0 0 0 0 0 1 1 0 0 0 0 0 0 0 0 0 0 0 0 0 0 0 0 0 0 0 0 0 0 0
0 0 0 0 0 0 0 0 0 0 0 0 0 0 0 0 0 0 0 0 0 0 0 0 0 0 0 0 0 0 0 0 0 0 0 0 0 0 0 0 0 0 0
Wind_Speed
3 3 3 3 4 3 3 4 4 4 4 4 4 4 4 4 4 4 3 8 8 9 9 9 9 8 8 8 7 7 7 8 8 8 9 9 9 9 9 9 8 8 7
3 3 3 3 4 4 4 4 4 4 4 3 4 5 5 5 5 5 4 5 9 9 9 10 10 10 9 8 8 8 8 8 8 8 9 9 9 9 8 8 7 7 6
3 3 3 3 3 3 4 3 3 3 3 4 4 5 4 5 5 6 5 4 4 8 9 10 10 11 10 10 9 9 8 8 8 8 8 8 8 8 8 7 7 6 5
3 3 3 3 3 3 3 3 3 3 3 3 3 3 3 3 5 5 5 5 4 4 7 10 10 10 11 10 10 10 9 9 8 8 8 7 7 8 8 7 6 5 5
3 3 3 3 3 2 3 3 3 3 4 4 3 3 2 3 4 5 6 6 6 5 4 7 10 10 10 11 11 11 10 10 9 9 9 8 7 7 7 6 6 5 4
3 3 3 3 3 2 3 3 3 4 3 3 3 2 2 2 2 4 6 5 5 6 5 5 5 7 10 10 10 11 11 11 10 10 10 9 8 8 7 6 6 5 4
4 3 3 3 3 3 4 4 3 4 3 3 2 1 1 1 2 3 3 4 5 6 6 6 5 4 4 9 9 10 11 12 11 11 10 10 9 8 8 7 6 5 4
4 4 3 3 3 3 4 4 4 3 3 4 3 2 1 2 2 2 3 4 5 5 6 7 6 6 5 4 6 9 9 10 12 11 11 11 10 9 8 7 7 5 4
4 4 4 3 4 4 4 5 5 5 4 4 4 4 4 4 1 1 2 3 4 4 5 5 7 7 7 5 5 7 9 9 11 12 11 11 10 9 8 8 7 6 5
4 4 4 4 4 4 5 5 6 5 5 4 4 3 2 3 3 2 1 2 4 5 6 6 7 7 7 5 6 8 10 9 10 11 11 11 11 10 9 8 7 7 6
4 4 4 3 3 4 5 6 5 6 5 5 4 4 3 2 2 2 2 2 2 3 4 5 5 6 7 6 6 8 11 11 10 10 10 11 11 11 10 9 8 7 7
4 5 4 3 3 4 5 5 6 7 7 7 6 5 5 4 5 4 3 3 3 2 3 4 4 5 6 6 8 11 12 12 11 10 9 10 11 11 10 9 9 8 8
4 6 5 4 4 4 4 5 5 6 7 8 8 6 6 5 4 5 4 3 2 2 2 3 4 4 5 5 6 11 11 12 12 11 10 9 10 10 10 10 10 9 9
5 6 5 5 5 5 4 4 4 5 5 7 8 8 6 5 5 5 5 5 4 3 3 4 2 4 4 5 6 10 7 13 12 11 10 10 10 9 9 9 9 9 8
5 7 6 6 6 5 5 4 3 4 4 5 6 7 6 5 5 5 5 5 6 5 6 4 3 4 4 4 7 7 6 11 13 12 11 11 10 9 9 8 8 7 7
6 7 7 7 6 6 5 4 3 2 2 3 4 6 6 5 6 6 5 5 5 5 4 4 3 3 4 5 7 6 6 11 12 12 11 10 10 9 9 8 8 7 8
7 7 7 7 7 7 6 5 4 3 2 2 3 4 5 5 5 5 5 5 5 5 4 2 2 2 4 5 5 5 5 6 6 11 11 10 10 9 9 8 8 8 8
6 7 7 7 7 7 6 6 5 4 3 3 2 2 4 4 5 5 6 6 5 5 5 5 4 3 4 5 6 6 5 5 5 10 11 10 10 9 9 9 9 9 8
7 7 7 7 7 7 7 6 5 4 4 3 2 2 2 3 4 4 5 5 5 5 4 5 4 3 2 4 5 5 6 5 5 7 9 10 10 10 10 10 10 10 9
6 7 7 7 7 7 6 6 6 5 4 4 2 1 1 2 3 4 4 5 5 5 5 5 4 4 3 4 5 6 6 5 5 5 6 7 10 11 11 11 11 11 11
6 6 6 7 7 6 6 7 5 5 5 4 3 2 1 1 4 4 3 4 5 5 5 5 5 4 5 6 6 5 6 6 5 4 6 5 6 6 6 10 11 12 12
6 6 6 7 7 7 11 11 7 5 5 4 4 3 2 1 1 2 3 6 6 6 5 5 4 6 6 6 6 7 7 7 4 5 5 5 5 6 5 5 10 13 13
5 5 6 6 7 9 13 12 11 5 5 4 4 3 3 3 4 2 3 3 4 5 5 5 6 6 7 8 9 9 7 6 5 6 6 5 4 5 4 6 12 13 13
4 4 5 6 6 9 14 13 11 6 5 5 4 3 3 3 2 2 3 3 3 3 2 3 4 4 5 7 7 7 9 8 7 5 4 5 3 4 4 5 11 12 12
4 3 4 5 6 8 13 13 10 4 4 5 5 4 3 2 2 3 3 4 4 3 4 5 5 6 10 12 11 9 10 10 7 3 2 4 4 4 4 4 6 10 10
3 4 4 4 5 6 11 12 10 3 4 4 4 4 5 4 3 3 3 3 4 2 3 4 5 6 8 11 13 9 9 10 7 4 3 4 5 4 4 2 2 3 5
Wind_Direction
256 244 235 226 224 218 217 211 202 202 209 214 217 221 226 227 224 222 229 239 231 216 208 201 195 191 186 178 169 159 152 149 147 146 144 142 138 135 131 128 124 122 119
253 243 238 233 229 221 217 209 201 198 208 210 220 221 224 223 222 219 216 231 229 214 208 203 200 198 193 186 179 170 163 158 156 153 151 150 147 144 139 138 134 130 127
257 242 234 236 234 226 217 203 201 195 204 212 222 221 221 221 218 215 211 207 214 212 205 203 204 202 198 194 190 181 173 167 164 161 158 156 154 154 152 150 146 141 137
269 253 239 238 235 226 212 204 199 205 215 212 218 225 225 224 221 213 206 200 195 198 203 204 202 202 202 200 197 189 181 176 173 169 167 164 163 163 162 160 158 154 150
274 252 246 244 232 221 211 216 203 198 216 216 221 228 229 230 226 215 205 200 195 189 186 203 203 201 204 205 201 196 189 184 182 179 175 173 172 173 170 168 168 166 165
282 259 247 245 232 221 217 209 206 200 205 206 234 238 234 235 221 209 206 198 193 192 186 189 197 206 207 207 206 202 196 192 190 187 183 181 179 178 178 178 179 179 176
289 267 257 242 227 222 221 211 199 205 208 169 166 247 285 250 221 215 200 191 196 195 183 188 190 190 203 208 207 208 205 199 195 192 189 185 183 182 182 183 184 183 182
292 280 252 243 228 225 225 214 197 189 199 174 167 155 240 287 258 216 194 199 201 187 192 197 191 192 190 187 203 210 212 205 201 199 195 189 185 183 183 186 185 179 176
294 277 265 249 233 220 225 219 205 199 201 194 184 167 173 208 225 250 210 201 190 191 199 192 195 195 194 188 188 208 211 207 206 205 196 190 185 183 184 182 177 171 164
303 290 274 255 243 232 230 226 217 211 201 200 197 198 178 154 163 205 251 209 197 200 200 199 198 196 194 190 192 195 200 202 205 208 201 193 186 185 183 177 171 166 161
320 313 296 281 262 247 241 234 223 213 208 203 190 178 173 168 168 166 194 195 209 210 200 199 193 193 194 192 191 196 197 198 201 208 204 195 188 184 180 175 172 170 164
331 337 320 302 285 267 254 244 232 220 216 209 200 188 174 174 182 177 181 182 197 208 196 199 196 193 192 192 199 196 195 195 197 201 198 191 186 183 180 178 177 175 167
336 338 337 323 307 287 270 255 242 232 219 213 208 204 199 196 168 168 166 162 169 179 184 204 202 195 196 188 196 194 195 192 193 194 192 185 180 180 182 181 179 177 171
328 333 334 333 325 316 301 275 252 239 227 221 217 209 206 203 189 179 170 160 164 183 196 207 186 196 192 184 192 188 192 190 189 187 185 180 176 178 177 178 177 175 171
338 343 342 341 338 334 327 309 278 253 235 222 217 210 208 201 195 193 181 172 168 187 207 200 191 191 185 177 179 183 182 190 185 181 179 176 173 175 173 173 170 167 163
344 345 348 343 340 339 335 326 306 293 255 231 218 212 210 202 196 190 188 186 181 180 196 189 189 173 176 178 178 176 180 180 182 176 176 176 173 173 174 171 167 163 158
345 347 344 342 342 342 339 337 323 326 304 266 236 216 210 198 195 191 185 186 187 182 188 169 164 162 166 170 165 163 163 166 171 170 170 170 171 170 167 161 159 154 152
343 343 343 345 345 343 341 342 336 332 323 308 277 229 213 199 193 192 190 190 189 186 178 171 167 167 168 170 160 159 159 159 152 160 162 163 163 163 156 150 149 145 144
344 347 348 348 343 339 336 337 337 337 330 319 300 261 233 194 187 192 184 183 182 182 174 162 163 155 142 150 149 149 148 139 146 149 150 149 148 147 144 140 138 137 136
346 346 344 341 339 335 336 340 343 344 343 339 325 294 217 191 187 185 183 185 176 171 170 166 160 153 144 147 152 152 146 134 135 133 126 128 131 129 131 132 133 132 129
346 342 346 346 344 341 345 349 345 352 352 354 355 356 345 205 198 193 187 181 172 171 170 172 165 156 154 159 161 151 144 132 117 122 121 120 121 117 121 126 129 130 127
342 347 350 348 349 348 348 1 3 355 356 2 0 357 357 18 131 155 174 181 178 176 176 173 169 169 163 155 146 149 145 143 138 139 122 110 113 115 113 115 126 128 127
339 343 344 348 345 340 353 6 10 9 8 7 4 3 18 33 37 60 74 105 152 164 173 171 170 170 164 162 155 156 152 138 126 137 120 106 107 105 102 115 125 127 128
333 333 337 342 344 347 359 5 10 12 12 9 5 13 28 23 35 73 78 75 81 91 136 154 164 163 156 153 153 143 134 114 101 98 99 107 102 96 92 98 116 119 122
328 329 329 344 347 343 354 4 13 0 11 8 3 13 18 22 46 93 105 100 86 71 81 109 123 134 140 144 141 135 138 137 129 108 80 107 118 99 81 76 92 104 112
315 325 336 345 346 340 349 3 12 5 5 360 359 8 14 22 39 82 115 122 117 103 104 104 108 122 131 143 147 150 150 147 137 130 135 116 130 126 111 76 74 90 95